Lawrenceville, GA

4:02 PM EST on December 09, 2019 (GMT -0500)
Gwinnett County-Briscoe

Weather History for KLZU - September, 2019

Change the Weather History Date:

Tuesday, September 10, 2019

  Actual Average (WUND) Record (WUND)
Temperature  
Mean Temperature 82 °F -  
Max Temperature 93 °F - - (-1)
Min Temperature 70 °F - - (-1)
Cooling Degree Days 16    
Growing Degree Days 32 (Base 50)    
Moisture  
Dew Point 70 °F    
Average Humidity 68    
Maximum Humidity 100    
Minimum Humidity 46    
Precipitation  
Precipitation 0.00 in - - ()
Sea Level Pressure  
Sea Level Pressure 30.23 in    
Wind  
Wind Speed 3 mph (ESE)    
Max Wind Speed 10 mph    
Max Gust Speed -    
Visibility 9 miles    
Events Rain , Thunderstorm    
Averages and records for this station are not official NWS values.
T = Trace of Precipitation, MM = Missing Value Source: NWS Daily Summary

Daily Weather History Graph

Daily Weather History Graph

Search for Another Location

Airport or City:

Astronomy

Sep. 10, 2019 Rise Set
Actual Time 7:15 AM EDT 7:49 PM EDT
Civil Twilight 6:50 AM EDT 8:14 PM EDT
Nautical Twilight 6:20 AM EDT 8:44 PM EDT
Astronomical Twilight 5:50 AM EDT 9:14 PM EDT
Moon 6:14 PM EDT (9/10) 3:52 AM EDT (9/10)
Length of Visible Light 13h 24m
Length of Day
12h 34m
Waxing Gibbous, 89% of the Moon is Illuminated
Sep 10
Waxing Gibbous
Sep 14
Full
Sep 21
Last Quarter
Sep 28
New
Oct 5
First Quarter

Hourly Weather History & Observations

Time (EDT) Temp. Heat Index Dew Point Humidity Pressure Visibility Wind Dir Wind Speed Gust Speed Precip Events Conditions
12:56 AM 73.9 °F - 68.0 °F 82% 30.18 in 10.0 mi Calm Calm - N/A   Clear
2:56 AM 72.0 °F - 69.1 °F 91% 30.20 in 10.0 mi Calm Calm - N/A   Clear
3:56 AM 71.1 °F - 69.1 °F 93% 30.20 in 10.0 mi Calm Calm - N/A   Clear
4:56 AM 71.1 °F - 68.0 °F 90% 30.21 in 10.0 mi East 4.6 mph - N/A   Clear
5:56 AM 70.0 °F - 68.0 °F 93% 30.22 in 10.0 mi Calm Calm - N/A   Clear
6:56 AM 70.0 °F - 68.0 °F 93% 30.22 in 6.0 mi Calm Calm - N/A   Clear
7:56 AM 72.0 °F - 68.0 °F 87% 30.25 in 10.0 mi NNE 4.6 mph - N/A   Clear
8:56 AM 77.0 °F - 69.1 °F 76% 30.27 in 10.0 mi ENE 4.6 mph - N/A   Clear
9:56 AM 84.0 °F 89.0 °F 71.1 °F 65% 30.29 in 10.0 mi ENE 3.5 mph - N/A   Clear
10:56 AM 86.0 °F 90.7 °F 70.0 °F 59% 30.29 in 10.0 mi Calm Calm - N/A   Clear
11:56 AM 89.1 °F 95.0 °F 71.1 °F 55% 30.28 in 10.0 mi ENE 4.6 mph - N/A   Clear
12:56 PM 90.0 °F 96.4 °F 71.1 °F 54% 30.27 in 5.0 mi Variable 3.5 mph - N/A   Haze
1:56 PM 91.9 °F 98.4 °F 71.1 °F 50% 30.26 in 6.0 mi ESE 3.5 mph - N/A   Haze
2:56 PM 93.9 °F 102.1 °F 72.0 °F 49% 30.24 in 7.0 mi ENE 8.1 mph - N/A   Mostly Cloudy
3:56 PM 93.9 °F 100.8 °F 71.1 °F 47% 30.22 in 10.0 mi SE 10.4 mph - N/A   Clear
4:33 PM 91.4 °F 98.4 °F 71.6 °F 52% 30.21 in 10.0 mi Variable 5.8 mph - N/A Thunderstorm Clear
4:56 PM 93.9 °F 100.3 °F 70.0 °F 46% 30.20 in 10.0 mi Variable 3.5 mph - N/A Thunderstorm Scattered Clouds
5:04 PM 93.2 °F 98.8 °F 69.8 °F 46% 30.20 in 6.0 mi Variable 5.8 mph - N/A   Haze
5:12 PM 93.2 °F 98.8 °F 69.8 °F 46% 30.21 in 7.0 mi East 5.8 mph - N/A Thunderstorm Clear
5:32 PM 89.6 °F 96.2 °F 71.6 °F 55% 30.22 in 10.0 mi SE 9.2 mph - N/A   Partly Cloudy
5:44 PM 87.8 °F 92.6 °F 69.8 °F 55% 30.22 in 10.0 mi SSE 3.5 mph - N/A Thunderstorm Partly Cloudy
5:56 PM 88.0 °F 93.8 °F 71.1 °F 57% 30.22 in 10.0 mi SSE 3.5 mph - N/A   Partly Cloudy
6:08 PM 87.8 °F 92.6 °F 69.8 °F 55% 30.21 in 10.0 mi SW 4.6 mph - N/A Thunderstorm Clear
6:12 PM 86.0 °F 90.4 °F 69.8 °F 58% 30.22 in 10.0 mi Calm Calm - N/A Thunderstorm Clear
6:35 PM 87.8 °F 92.6 °F 69.8 °F 55% 30.21 in 10.0 mi Variable 3.5 mph - N/A   Clear
6:56 PM 82.9 °F 87.5 °F 71.1 °F 67% 30.23 in 10.0 mi Calm Calm - N/A   Clear
7:56 PM 80.1 °F 82.7 °F 68.0 °F 67% 30.24 in 10.0 mi SSW 10.4 mph - N/A Thunderstorm Scattered Clouds
8:00 PM 80.6 °F 83.2 °F 68.0 °F 65% 30.24 in 10.0 mi SSW 6.9 mph - N/A Thunderstorm Clear
8:56 PM 72.0 °F - 68.0 °F 87% 30.25 in 10.0 mi ESE 6.9 mph - N/A Rain Light Rain
9:56 PM 71.1 °F - 70.0 °F 96% 30.27 in 10.0 mi Calm Calm - N/A Rain Light Rain
10:56 PM 71.1 °F - 70.0 °F 96% 30.28 in 10.0 mi Calm Calm - N/A   Clear
11:56 PM 70.0 °F - 70.0 °F 100% 30.28 in 9.0 mi Calm Calm - N/A   Clear